Content
SEND FEEDBACK

Daily
Averages
Monthly
Summary
United States of America

NEW YORK - CENTRAL PARK, NEW YORK


Home > North America > United States > New York
Elevation: 14 feet     Latitude: 40 47N     Longitude: 073 58W

WEATHER
 
SELECT A DAY
Number of Records: 147,991;   Date Range: 11/1/95 - 7/20/14
 
SHARE

PRINT THIS DATA

[ ← Previous Day ]
WEATHER ALMANAC - FEBRUARY 11, 2013
[ Next Day → ]
[ °C ]   °F
Weather ElementAverageHighLow
Temperature41.5 °F45 °F (6:51 pm)34 °F (1:51 am)
Dewpoint39.3 °F43 °F (6:42 pm)23 °F (1:51 am)
Humidity92.2 %100 % (9:47 am)64 % (1:51 am)
Barometer29.90 in30.30 in (1:51 am)29.67 in (7:51 pm)
Wind Speed3.4 mph8.1 mph (8:28 am)
Weather ElementAverage
Visibility3.2 mi
Wind DirectionE (88 °)

Weather ElementTotal
Precipitation0.95 in
Heating Degree Days25.5 (Base 65)
Averaged from 50 records on February 11, 2013
WEATHER CONDITIONS BREAKOUT
WIND DIRECTION BREAKOUT
WEATHER BY HOUR - FEBRUARY 11, 2013
[ °C ]   °F
Local TimeTemperatureDewpointHumidityBarometerVisibilityWind DirectionWind SpeedGust SpeedPrecipitationEventsConditions
1:51 AM34.0 °F23.0 °F64 %30.30 in10.0 miVariable6.9 mphPartly Cloudy
2:51 AM36.0 °F26.1 °F67 %30.25 in10.0 miVariable5.8 mphPartly Cloudy
3:51 AM37.0 °F28.9 °F73 %30.23 in10.0 miVariable3.5 mphOvercast
4:51 AM37.9 °F32.0 °F79 %30.19 in10.0 miSSE (160°)6.9 mph0.00 inOvercast
5:51 AM37.9 °F34.0 °F86 %30.16 in7.0 miCalm0.01 inRainLight Rain
6:31 AM37.9 °F36.0 °F93 %30.15 in4.0 miVariable4.6 mph0.04 inRainLight Rain
6:51 AM39.0 °F36.0 °F89 %30.12 in4.0 miSSE (160°)6.9 mph0.08 inRainLight Rain
7:06 AM39.0 °F37.0 °F93 %30.13 in4.0 miVariable4.6 mph0.01 inRainLight Rain
7:44 AM39.0 °F37.0 °F93 %30.09 in2.5 miVariable3.5 mph0.05 inRainLight Rain
7:51 AM39.0 °F37.0 °F93 %30.07 in2.0 miVariable3.5 mph0.06 inRainLight Rain
8:05 AM39.0 °F37.9 °F96 %30.07 in1.8 miVariable3.5 mph0.03 inRainRain
8:28 AM39.9 °F37.9 °F93 %30.05 in1.8 miSE (140°)8.1 mph0.09 inRainLight Rain
8:51 AM41.0 °F39.0 °F93 %30.02 in1.0 miNorth0.17 inRainRain
9:19 AM41.0 °F39.9 °F96 %30.03 in1.0 miVariable3.5 mph0.07 inRainLight Rain
9:47 AM42.8 °F42.8 °F100 %30.01 in2.5 miSouth (180°)3.5 mph0.11 inRainLight Rain
9:51 AM43.0 °F42.1 °F97 %29.99 in2.0 miCalm0.11 inRainLight Rain
10:08 AM43.0 °F41.0 °F93 %29.99 in0.5 miWNW (290°)3.5 mph0.02 inFog-RainLight Rain
10:28 AM42.1 °F39.9 °F92 %29.98 in1.2 miNW (310°)3.5 mph0.04 inRainLight Rain
10:51 AM42.1 °F39.9 °F92 %29.96 in1.2 miWNW (300°)3.5 mph0.05 inOvercast
11:03 AM41.0 °F39.9 °F96 %29.97 in0.8 miNW (310°)3.5 mphOvercast
11:33 AM39.9 °F37.9 °F93 %29.95 in0.8 miCalmOvercast
11:51 AM39.9 °F39.0 °F97 %29.92 in0.5 miCalm0.01 inFog-RainLight Rain
12:18 PM41.0 °F39.9 °F96 %29.92 in1.2 miCalm0.00 inOvercast
12:25 PM42.1 °F41.0 °F96 %29.91 in1.0 miCalm0.00 inOvercast
12:51 PM43.0 °F41.0 °F93 %29.86 in1.0 miCalm0.00 inOvercast
1:28 PM43.0 °F41.0 °F93 %29.84 in3.0 miWest (270°)5.8 mphOvercast
1:51 PM42.1 °F39.9 °F92 %29.82 in4.0 miWSW (250°)8.1 mphOvercast
2:06 PM42.1 °F39.9 °F92 %29.83 in2.5 miCalmOvercast
2:19 PM42.1 °F41.0 °F96 %29.83 in1.5 miCalmOvercast
2:39 PM42.1 °F41.0 °F96 %29.81 in1.5 miNorthOvercast
2:46 PM42.8 °F41.0 °F93 %29.81 in2.0 miCalmOvercast
2:51 PM42.1 °F41.0 °F96 %29.79 in2.0 miWest (280°)5.8 mphOvercast
3:51 PM43.0 °F41.0 °F93 %29.74 in2.5 miWest (270°)6.9 mphOvercast
4:29 PM43.0 °F42.1 °F97 %29.74 in1.5 miWNW (300°)3.5 mphOvercast
4:51 PM42.1 °F41.0 °F96 %29.72 in1.5 miCalmOvercast
5:51 PM43.0 °F42.1 °F97 %29.70 in2.0 miCalmOvercast
6:42 PM44.1 °F43.0 °F96 %29.71 in1.8 miNorthOvercast
6:51 PM45.0 °F43.0 °F93 %29.68 in2.0 miCalmOvercast
6:58 PM44.1 °F43.0 °F96 %29.70 in1.5 miCalmOvercast
7:51 PM44.1 °F43.0 °F96 %29.67 in1.8 miCalmOvercast
8:37 PM44.1 °F43.0 °F96 %29.69 in1.8 miWNW (290°)4.6 mphOvercast
8:51 PM44.1 °F43.0 °F96 %29.67 in1.2 miVariable3.5 mphOvercast
9:46 PM42.8 °F42.8 °F100 %29.71 in2.5 miNW (310°)5.8 mphOvercast
9:51 PM43.0 °F42.1 °F97 %29.69 in2.5 miWNW (300°)5.8 mphOvercast
10:16 PM43.0 °F41.0 °F93 %29.72 in3.0 miVariable3.5 mphOvercast
10:44 PM43.0 °F41.0 °F93 %29.73 in6.0 miVariable6.9 mphOvercast
10:51 PM43.0 °F41.0 °F93 %29.70 in7.0 miVariable4.6 mphOvercast
11:10 PM43.0 °F41.0 °F93 %29.74 in7.0 miVariable5.8 mphOvercast
11:28 PM43.0 °F39.9 °F89 %29.74 in8.0 miVariable4.6 mphMostly Cloudy
11:51 PM44.1 °F39.9 °F85 %29.72 in9.0 miWest (280°)4.6 mphScattered Clouds
Hourly data recorded from KNYC, located miles away from New York - Central Park, New York







STORIES FROM OUR PARTNERS